Regional Weather Roundup
Issued by NWS Little Rock, AR

Home | Current Version | Previous Version | Text Only | Print | Product List | Glossary Off
Versions: 1 2 3 4 5 6 7 8 9 10 11 12 13 14 15 16 17 18 19 20 21 22 23 24 25 26 27 28 29 30 31 32 33 34 35 36 37 38 39 40 41 42 43 44 45 46 47 48 49 50

000
ASUS44 KLZK 221005
RWRLZK

WEATHER ROUNDUP FOR ARKANSAS
NATIONAL WEATHER SERVICE LITTLE ROCK AR
500 AM CDT SAT JUL 22 2017

NOTE: "FAIR" INDICATES FEW OR NO CLOUDS BELOW 12,000 FEET WITH NO
SIGNIFICANT WEATHER AND/OR OBSTRUCTIONS TO VISIBILITY.

ARZ001-003-010-029-221100-
NORTHWEST ARKANSAS

CITY           SKY/WX    TMP DP  RH WIND       PRES   REMARKS
FAYETTEVILLE   CLEAR     72  71  97 CALM      29.96S
FORT SMITH     CLEAR     78  75  90 E3        29.91S
HARRISON       CLEAR     76  68  76 CALM      29.96S
BENTONVILLE    CLEAR     75  68  78 CALM      29.96S
ROGERS         CLEAR     76  70  82 S6        29.97R
SILOAM SPGS    CLEAR     73  68  83 S7        29.95S
HIGHFILL       CLEAR     73  70  90 CALM      29.96S
$$

ARZ004-005-016-221100-
NORTH CENTRAL ARKANSAS

CITY           SKY/WX    TMP DP  RH WIND       PRES   REMARKS
BATESVILLE     PTCLDY    77  72  83 CALM      29.92S
FLIPPIN        CLEAR     79  68  69 SW5       29.90S
MTN HOME       CLEAR     74  72  93 CALM      29.93R
$$

ARZ040-041-221100-
WEST CENTRAL ARKANSAS

CITY           SKY/WX    TMP DP  RH WIND       PRES   REMARKS
MENA           PTCLDY    77  75  94 W5        29.97S
MOUNT IDA      CLEAR     74  72  93 CALM      29.93S FOG
$$

ARZ009-017-025-026-028-221100-
NORTHEAST ARKANSAS

CITY           SKY/WX    TMP DP  RH WIND       PRES   REMARKS
CORNING        LGT RAIN  79  79 100 SW5       29.92R
JONESBORO      PTCLDY    81  78  91 SW3       29.91S HX  89
WALNUT RIDGE   CLEAR     79  73  83 S6        29.91S
BLYTHEVILLE    CLEAR     79  77  94 SW3       29.92S
$$

ARZ022-023-033-042-044-221100-
CENTRAL ARKANSAS

CITY           SKY/WX    TMP DP  RH WIND       PRES   REMARKS
LITTLE ROCK    PTCLDY    78  77  96 CALM      29.93S
N LITTLE ROCK    N/A     79  74  87 CALM      29.91S
JACKSONVILLE   PTCLDY    76  76  99 CALM      29.92S
CONWAY           N/A     77  75  94 CALM      29.91S
SEARCY         PTCLDY    76  76 100 MISG      29.94S FOG
HOT SPRINGS    CLEAR     79  77  94 CALM      29.94S
RUSSELLVILLE   CLEAR     75  74  96 S3        29.92S
CLINTON        FAIR      73  73 100 CALM      29.93S FOG
$$

ARZ036-221100-
EAST ARKANSAS

CITY           SKY/WX    TMP DP  RH WIND       PRES   REMARKS
WEST MEMPHIS   PTCLDY    76  75  97 S5        29.93R
$$

ARZ050-053-066-070-073-221100-
SOUTHWEST ARKANSAS

CITY           SKY/WX    TMP DP  RH WIND       PRES   REMARKS
ARKADELPHIA    FAIR      74  73  97 CALM      29.94S
CAMDEN         CLEAR     73  72  94 CALM      29.95R
TEXARKANA      CLEAR     77  74  90 SW6       29.94S
EL DORADO      CLEAR     75  73  93 CALM      29.96R
DE QUEEN       CLEAR     75  75 100 CALM      29.92S FOG
$$

ARZ056-057-069-221100-
SOUTHEAST ARKANSAS

CITY           SKY/WX    TMP DP  RH WIND       PRES   REMARKS
PINE BLUFF     CLEAR     76  75  97 S6        29.94R
STUTTGART      CLEAR     81  64  57 S6        29.95R
MONTICELLO     CLEAR     76  74  93 CALM      29.95R

$$





USA.gov is the U.S. government's official web portal to all federal, state and local government web resources and services.